Voltar ao catálogo

RADUGA 1-6

AtivoComunicaçõesGEO
NORAD 26936·PAYLOAD·🇷🇺 Russia

Lançado Oct 6, 2001 de Baikonur Cosmodrome

Loading…

TLE

AtualizadoSource: Space-Track

Época: Sep 13, 2026, 22:37 UTC

1 26936U 01045A   26256.94286284 -.00000078  00000-0  00000-0 0  9996
2 26936  14.6725  13.9858 0019102 213.7826 151.2871  0.97744158 89477

Acompanhe RADUGA 1-6 em tempo real com AllMySat

Download on the App Store